Panama City Tyndall AFB, FL

7:42 PM CDT on April 22, 2018 (GMT -0500)
Tyndall Air Force Base

Weather History for KPAM - May, 2013

Change the Weather History Date:

Wednesday, May 1, 2013

  Actual Average Record
Temperature  
Mean Temperature 68 °F -  
Max Temperature 71 °F 77 °F 86 °F (2012)
Min Temperature 66 °F 61 °F 51 °F (2008)
Cooling Degree Days 4    
Growing Degree Days 18 (Base 50)    
Moisture  
Dew Point 69 °F    
Average Humidity 99    
Maximum Humidity 100    
Minimum Humidity 94    
Precipitation  
Precipitation 0.32 in - - ()
Sea Level Pressure  
Sea Level Pressure 29.98 in    
Wind  
Wind Speed 8 mph (East)    
Max Wind Speed 13 mph    
Max Gust Speed 22 mph    
Visibility 9 miles    
Events Rain    
Averages and records for this station are not official NWS values.
T = Trace of Precipitation, MM = Missing Value Source: NWS Daily Summary

Daily Weather History Graph

Daily Weather History Graph

Search for Another Location

Airport or City:

Astronomy

May. 01, 2013 Rise Set
Actual Time 5:59 AM CDT 7:20 PM CDT
Civil Twilight 5:33 AM CDT 7:45 PM CDT
Nautical Twilight 5:03 AM CDT 8:15 PM CDT
Astronomical Twilight 4:32 AM CDT 8:47 PM CDT
Moon 12:27 AM CDT (5/1) 11:36 AM CDT (5/1)
Length of Visible Light 14h 11m
Length of Day
13h 20m
Waning Gibbous, 59% of the Moon is Illuminated
May 1
Waning Gibbous
May 2
Last Quarter
May 9
New
May 17
First Quarter
May 24
Full

Hourly Weather History & Observations

Time (CDT) Temp. Dew Point Humidity Pressure Visibility Wind Dir Wind Speed Gust Speed Precip Events Conditions
12:58 AM 70.9 °F 70.7 °F 99% 29.95 in 10.0 mi East 5.8 mph - N/A   Clear
1:58 AM 71.1 °F 69.6 °F 95% 29.93 in 10.0 mi East 5.8 mph - N/A   Partly Cloudy
2:58 AM 70.5 °F 70.5 °F 100% 29.91 in 10.0 mi East 8.1 mph - N/A   Partly Cloudy
3:58 AM 70.2 °F 70.2 °F 100% 29.93 in 10.0 mi East 10.4 mph - N/A   Partly Cloudy
4:58 AM 68.7 °F 68.7 °F 100% 29.93 in 10.0 mi East 6.9 mph - 0.01 in Rain Light Rain
5:58 AM 68.9 °F 68.9 °F 100% 29.94 in 10.0 mi ENE 5.8 mph - 0.00 in   Partly Cloudy
6:58 AM 68.0 °F 68.0 °F 100% 29.96 in 10.0 mi East 11.5 mph - 0.01 in   Mostly Cloudy
7:58 AM 67.5 °F 67.5 °F 100% 29.97 in 10.0 mi East 9.2 mph - N/A   Mostly Cloudy
8:58 AM 68.2 °F 68.2 °F 100% 29.98 in 10.0 mi East 9.2 mph - N/A   Mostly Cloudy
9:58 AM 68.5 °F 68.5 °F 100% 30.01 in 10.0 mi East 8.1 mph - N/A   Partly Cloudy
10:05 AM 68.0 °F 68.0 °F 100% 30.00 in 10.0 mi East 8.1 mph - N/A   Overcast
10:55 AM 69.8 °F 68.0 °F 94% 30.00 in 10.0 mi East 9.2 mph 18.4 mph N/A   Mostly Cloudy
10:58 AM 69.4 °F 68.9 °F 98% 30.01 in 10.0 mi East 9.2 mph - N/A   Partly Cloudy
11:58 AM 70.7 °F 69.3 °F 95% 30.00 in 10.0 mi East 10.4 mph 19.6 mph N/A   Mostly Cloudy
12:13 PM 69.8 °F 69.8 °F 100% 29.99 in 10.0 mi East 11.5 mph 18.4 mph N/A   Mostly Cloudy
12:18 PM 69.8 °F 68.0 °F 94% 29.99 in 10.0 mi East 12.7 mph 21.9 mph N/A   Mostly Cloudy
12:23 PM 69.8 °F 69.8 °F 100% 29.99 in 5.0 mi East 12.7 mph 21.9 mph N/A Rain Light Rain Showers
12:25 PM 69.8 °F 69.8 °F 100% 29.99 in 2.5 mi East 10.4 mph 21.9 mph N/A Rain Light Rain
12:33 PM 68.0 °F 68.0 °F 100% 29.99 in 2.5 mi East 9.2 mph - N/A Rain Rain Showers
12:43 PM 68.0 °F 68.0 °F 100% 29.99 in 2.5 mi East 6.9 mph - N/A Rain Heavy Rain
12:48 PM 66.2 °F 66.2 °F 100% 29.99 in 1.8 mi East 8.1 mph - N/A Rain Heavy Rain
12:53 PM 66.2 °F 66.2 °F 100% 29.99 in - East 6.9 mph - N/A Rain Light Rain
12:58 PM 66.9 °F 66.9 °F 100% 30.00 in 5.0 mi East 5.8 mph - 0.09 in Rain Light Rain Showers
1:23 PM 68.0 °F 68.0 °F 100% 29.98 in 10.0 mi ENE 5.8 mph - N/A   Overcast
1:28 PM 68.0 °F 68.0 °F 100% 29.98 in 10.0 mi ENE 8.1 mph - N/A   Overcast
1:56 PM 68.0 °F 68.0 °F 100% 29.99 in 10.0 mi East 9.2 mph - 0.20 in   Mostly Cloudy
2:35 PM 69.8 °F 69.8 °F 100% 29.97 in 10.0 mi East 9.2 mph - N/A   Mostly Cloudy
2:56 PM 69.8 °F 69.8 °F 100% 29.98 in 10.0 mi East 10.4 mph - N/A   Mostly Cloudy
3:57 PM 68.0 °F 68.0 °F 100% 29.97 in 10.0 mi East 10.4 mph - N/A Rain Light Rain Showers
4:56 PM 69.8 °F 69.8 °F 100% 29.96 in 10.0 mi East 9.2 mph 19.6 mph 0.01 in   Mostly Cloudy
5:58 PM 69.8 °F 69.8 °F 100% 29.95 in 10.0 mi East 10.4 mph 18.4 mph N/A   Mostly Cloudy
6:14 PM 69.8 °F 69.8 °F 100% 29.96 in 10.0 mi East 9.2 mph 17.3 mph N/A   Partly Cloudy
6:58 PM 69.4 °F 69.4 °F 100% 29.98 in 10.0 mi East 10.4 mph - N/A   Scattered Clouds
7:58 PM 69.3 °F 69.3 °F 100% 29.98 in 10.0 mi East 10.4 mph 18.4 mph N/A   Scattered Clouds
8:58 PM 69.1 °F 69.1 °F 100% 29.99 in 10.0 mi ENE 10.4 mph - N/A   Mostly Cloudy
9:58 PM 68.4 °F 68.4 °F 100% 30.01 in 10.0 mi ENE 9.2 mph - N/A   Partly Cloudy
10:58 PM 68.9 °F 68.9 °F 100% 30.01 in 10.0 mi East 12.7 mph 17.3 mph N/A   Mostly Cloudy
11:58 PM 68.4 °F 68.4 °F 100% 30.00 in 10.0 mi East 11.5 mph 19.6 mph N/A   Mostly Cloudy